Location: Lamoine Observatory
(44.4551°N, 68.3470°W)
Time: 15:39:21
(UTC-04:00)

Daily predictions for brighter satellites

Satellite Brightness Start Highest point End
(mag) Time Altitude Azimuth Time Altitude Azimuth Time Altitude Azimuth
Cosmos 44 3.1 19:44:52 10° SSW 19:49:19 82° ESE 19:54:06 10° NE
Cosmos 1825 4.4 19:50:47 10° ENE 19:51:13 10° ENE 19:51:39 10° ENE
BREEZE-M DEB (TANK) 4.1 19:47:38 10° SW 19:51:56 58° SE 20:08:07 10° ENE
Cosmos 1633 Rocket 3.8 19:49:21 10° N 19:53:19 33° ENE 19:57:15 10° SE
SL-24 R/B - RUBIN 2 3.6 19:52:25 10° NNW 19:56:47 64° NE 20:01:06 10° SE
Thor Agena Rocket 3.6 19:58:44 10° NNE 20:03:56 64° ESE 20:09:09 10° S
Cosmos 2154 Rocket 4.1 19:58:58 10° S 20:05:04 58° E 20:11:10 10° NNE
Cosmos 1437 3.0 20:02:29 10° SSW 20:05:39 70° W 20:08:50 10° N
Cosmos 44 Rocket 3.2 20:03:02 10° SSW 20:07:47 83° ESE 20:12:42 10° NE
Cosmos 2184 Rocket 4.2 20:02:39 10° SSW 20:08:49 78° W 20:15:01 10° N
Cosmos 2221 3.4 20:04:55 10° SSW 20:09:06 53° WNW 20:13:17 10° N
Cosmos 1346 Rocket 4.3 20:07:09 10° SSW 20:11:03 42° WNW 20:14:59 10° N
Meteor 2-2 Rocket 4.4 20:07:37 10° S 20:13:19 58° E 20:19:10 10° NNE
Cosmos 1300 4.0 20:11:19 10° SSW 20:14:59 44° WNW 20:18:41 10° N
Cosmos 1805 Rocket 3.9 20:12:32 10° NNW 20:16:53 69° W 20:21:10 10° S
Cosmos 2360 Rocket 3.1 20:11:30 10° SW 20:17:00 54° WNW 20:22:32 10° NNE
NOSS 2-1 (C) 3.1 20:16:00 10° SSW 20:19:35 68° SE 20:23:34 10° NE
NOSS 2-1 (D) 3.1 20:16:57 10° SSW 20:20:33 71° SE 20:24:34 10° NE
OE (NEXTSAT) 4.5 20:17:12 10° SW 20:20:41 56° SSE 20:24:05 11° E
Resurs 01 Rocket 1.6 20:16:33 10° SSE 20:20:59 79° ENE 20:25:26 10° N
Cosmos 2333 Rocket 2.5 20:17:31 10° S 20:22:52 45° ESE 20:28:14 10° NE
ATLAS 2AS CENTAUR R/B 3.1 20:16:29 10° NW 20:24:27 66° NE 20:30:50 15° SE
Cosmos 2341 Rocket 4.1 20:19:03 10° SSE 20:25:14 56° E 20:31:25 10° NNE
Cosmos 1328 Rocket 3.8 20:21:40 10° SSE 20:25:52 46° E 20:30:07 10° NNE
COSMOS 2428 2.7 20:22:20 10° SSW 20:28:04 83° ESE 20:33:50 10° NNE
Spot 2 Rocket 3.5 20:24:20 10° SSE 20:29:25 74° ENE 20:34:31 10° N
Cosmos 2333 4.2 20:25:44 10° SSW 20:31:23 90° SW 20:37:03 10° NNE
Cosmos 962 Rocket 4.4 20:27:48 10° S 20:33:51 67° E 20:39:59 10° NNE
Cosmos 1470 Rocket 3.9 20:30:11 10° N 20:34:26 47° ENE 20:37:41 17° SSE
Cosmos 1844 Rocket 3.1 20:29:14 10° NNW 20:34:51 66° WSW 20:40:27 10° SSE
Cosmos 1844 3.8 20:29:17 10° NNW 20:35:00 83° WSW 20:40:34 11° SSE
SJ-11-01 4.3 20:33:52 10° SSE 20:38:31 83° WSW 20:43:14 10° NNW
Cosmos 1455 2.1 20:35:26 10° S 20:39:14 72° E 20:43:05 10° NNE
Cosmos 1892 3.2 20:39:22 10° NNW 20:43:13 60° W 20:47:02 10° S
Cosmos 2237 Rocket 2.6 20:39:37 10° S 20:44:47 39° ESE 20:49:59 10° NE
Cosmos 1295 Rocket 4.5 20:39:05 10° S 20:45:24 77° E 20:51:44 10° N
ERS-2 4.2 20:42:23 10° SSW 20:45:30 26° W 20:48:39 10° NW
Cosmos 2219 Rocket 2.1 20:40:07 10° SSW 20:45:47 80° ESE 20:51:27 10° NNE
Cosmos 2366 rocket 4.4 20:42:43 13° SSE 20:47:49 41° E 20:53:38 10° NNE
BREEZE-M DEB (TANK) 2.4 20:44:29 10° WNW 20:48:46 65° SSW 20:49:38 35° SE
Lacrosse 5 4.1 20:45:11 10° NW 20:48:51 19° N 20:52:31 10° NE
Cosmos 1408 2.8 20:45:46 10° N 20:49:19 48° ENE 20:50:51 29° SE
NOSS 2-1 (E) 3.6 20:47:18 10° SW 20:50:56 65° NW 20:55:07 10° NNE
Cosmos 2278 Rocket 2.3 20:46:23 10° NNW 20:52:02 62° ENE 20:55:31 24° SE
NOSS 0 Rocket 4.0 20:46:22 10° S 20:52:23 57° ESE 20:58:27 10° NE
SPOT 5 4.2 20:51:36 19° E 20:52:57 21° ENE 20:56:19 10° NNE
ATLAS CENTAUR R/B 1.1 20:49:34 10° SSW 20:53:07 52° ESE 20:56:51 10° NE
MetOp-A 4.3 20:52:09 22° SE 20:55:28 54° ENE 21:00:41 10° N
SL-8 Rocket 4.0 20:51:48 10° S 20:58:01 66° E 21:04:15 10° NNE
USA 186 4.1 20:57:20 10° WSW 20:58:19 12° W 20:59:19 10° WNW
NOAA 11 4.4 20:53:30 10° S 20:58:59 75° WSW 21:04:32 10° NNW
Genesis I 3.2 20:55:07 10° NW 20:59:14 85° ENE 21:01:00 33° SE
H-2A R/B 2.4 20:58:30 26° SE 21:00:53 45° ENE 21:05:38 10° N
NOSS 3-3 (A) 4.0 20:56:45 10° SW 21:02:49 90° WNW 21:09:32 10° NE
NOSS 3-3 (C) 4.0 20:56:51 10° SW 21:02:55 90° ESE 21:09:38 10° NE
Cosmos 1933 Rocket 3.4 20:58:53 10° N 21:03:18 81° E 21:05:47 25° SSE
Cosmos 407 Rocket 4.2 21:01:18 10° N 21:06:01 36° ENE 21:07:47 28° E
USA 267 3.7 21:03:49 10° ENE 21:09:45 36° SE 21:15:40 10° SSW
ERS-1 Rocket 3.2 21:10:18 32° SE 21:12:19 53° ENE 21:17:13 10° N
Cosmos 1371 Rocket 4.2 21:09:58 22° SSE 21:13:05 48° ESE 21:18:15 10° NNE
Cosmos 1151 Rocket 3.1 21:13:26 12° SSW 21:17:23 74° W 21:21:41 10° N
Cosmos 1869 Rocket 4.0 21:21:02 10° N 21:25:14 43° ENE 21:25:34 42° E
Cosmos 1825 2.5 21:23:27 10° NNW 21:27:13 63° W 21:28:24 39° SSW
Cosmos 864 Rocket 4.3 21:25:49 18° S 21:30:30 83° E 21:36:40 10° N
Cosmos 2098 Rocket 3.0 21:31:01 32° S 21:33:11 88° E 21:37:08 10° N
SL-16 R/B 2.6 21:33:18 40° ESE 21:33:23 40° ESE 21:38:38 10° NE
Cosmos 2056 Rocket 3.6 21:32:53 37° SSE 21:34:49 60° ESE 21:40:09 10° NNE
Cosmos 1869 3.4 21:34:43 40° SSW 21:36:05 74° W 21:40:07 10° N
Cosmos 2228 Rocket 4.1 21:32:36 10° SSW 21:36:48 44° WNW 21:41:02 10° N
Helios 1B rocket 3.6 21:35:25 10° NNE 21:38:01 30° ENE 21:38:01 30° ENE
SL-8 R/B 3.6 21:36:52 10° SW 21:41:35 61° SSE 21:41:35 61° SSE
USA 234 4.1 21:40:32 20° E 21:44:37 43° NNE 21:50:43 10° NW
Cosmos 405 3.2 21:41:44 10° N 21:44:48 65° NNW 21:44:48 65° NNW
ARGOS 3.6 21:44:34 29° SSW 21:47:10 56° W 21:52:28 10° NNW
GEOS 3 Rocket 3.5 21:43:14 10° NE 21:48:37 82° SE 21:53:54 10° SW
Cosmos 1943 Rocket 4.2 21:45:48 10° N 21:48:41 14° NE 21:50:36 12° ENE
Helios 1A 2.8 21:49:42 82° SSE 21:49:53 89° ESE 21:54:07 10° NNW
Cosmos 1624 Rocket 3.8 21:50:08 38° SSW 21:52:13 87° ESE 21:57:27 10° NNE
BREEZE-M DEB (TANK) 4.3 21:49:53 10° WNW 21:51:02 20° W 21:51:02 20° W
SL-08 RB Rocket 4.2 21:52:57 43° SSW 21:54:02 54° W 21:58:27 10° NNW
Cosmos 1190 Rocket 3.9 21:50:07 10° NNW 21:55:27 85° WSW 21:56:23 61° S
CZ-2C R/B 4.1 21:58:35 27° ENE 21:58:35 27° ENE 22:02:19 10° N
Cosmos 2297 3.6 21:56:19 10° NNW 22:02:02 87° ENE 22:02:58 64° SSE
Cosmos 1727 Rocket 4.2 21:56:15 10° NNW 22:02:23 65° W 22:04:57 35° SSW
Cosmos 1000 Rocket 4.4 21:57:22 10° N 22:03:32 66° E 22:04:36 57° SE
Landsat 7 3.7 22:03:40 72° ENE 22:03:41 72° ENE 22:08:27 10° N
BREEZE-M DEB (TANK) 3.5 22:01:26 10° WNW 22:05:12 33° NNW 22:05:12 33° NNW
Cosmos 1140 Rocket 3.5 22:01:08 10° NNW 22:06:17 61° ENE 22:06:25 61° ENE
Cosmos 2333 Rocket 4.0 22:02:18 10° WSW 22:07:18 31° NW 22:12:18 10° N
Cosmos 1821 Rocket 4.0 22:08:27 57° SE 22:09:12 62° E 22:15:26 10° NNE
Cosmos 1954 Rocket 3.9 22:04:09 10° NNW 22:09:22 67° ENE 22:09:29 67° ENE
Cosmos 2369 Rocket 3.5 22:07:53 10° N 22:12:39 26° NE 22:13:27 25° ENE
Cosmos 1441 Rocket 4.3 22:13:59 41° NNW 22:13:59 41° NNW 22:16:38 10° N
Meteor 2-10 Rocket 4.4 22:11:14 23° SW 22:14:40 54° WNW 22:20:23 10° N
ATLAS 2AS CENTAUR R/B 4.1 22:08:15 10° NW 22:14:56 32° WSW 22:18:17 22° SSW
DMSP B5D2-2 4.1 22:11:55 10° N 22:17:11 78° WNW 22:18:05 61° SW
Cosmos 1862 4.2 22:14:54 10° NNW 22:18:24 46° WNW 22:18:24 46° WNW
BREEZE M DEB (TANK) 4.2 22:04:20 10° W 22:19:59 65° NNW 22:22:58 25° ENE
Spot 1 4.4 22:20:21 78° W 22:20:21 78° W 22:25:10 10° NNW
IGS 5A 4.2 22:21:28 50° N 22:21:28 50° N 22:24:39 10° N
Terra 2.0 22:21:54 65° NNE 22:21:54 65° NNE 22:26:09 10° N
Cosmos 2123 Rocket 4.1 22:17:37 10° N 22:23:51 56° ENE 22:24:07 55° E
Cosmos 2237 Rocket 3.7 22:23:48 10° WSW 22:28:53 34° NW 22:34:01 10° N
SPOT 5 3.5 22:30:51 44° W 22:30:51 44° W 22:35:07 10° NNW
SPOT 1/Viking Rocket 4.0 22:31:21 50° WSW 22:31:47 52° W 22:36:53 10° NNW
Cosmos 1437 Rocket 4.4 22:28:31 10° N 22:30:37 30° N 22:30:37 30° N
ATLAS CENTAUR R/B 4.0 22:29:44 10° W 22:32:24 18° NW 22:35:12 10° N
Lacrosse 5 3.3 22:28:43 10° NW 22:33:12 30° NNE 22:34:13 28° NE
Cosmos 2278 Rocket 4.1 22:31:30 10° NW 22:35:35 21° W 22:37:22 18° SW
CZ-2C R/B 3.8 22:32:02 10° NNE 22:35:16 31° NE 22:35:16 31° NE
CZ-4C R/B 3.8 22:41:44 23° ENE 22:41:44 23° ENE 22:44:08 10° NE
Cosmos 1535 Rocket 4.3 22:39:33 79° SSE 22:39:58 86° E 22:46:23 10° N
Cosmos 405 Rocket 4.5 22:41:01 31° NW 22:41:01 31° NW 22:43:52 10° N
H-2A R/B 3.8 22:39:08 21° WSW 22:40:29 23° W 22:44:27 10° NW
Meteor 1-20 Rocket 4.5 22:38:08 10° N 22:42:52 56° NE 22:42:52 56° NE
NOSS 3-4 (A) 4.0 22:38:51 10° NW 22:45:44 57° WSW 22:46:43 53° SSW
NOSS 3-4 (C) 4.0 22:38:57 10° NW 22:45:51 57° WSW 22:46:49 53° SSW
Cosmos 1241 Rocket 4.4 22:41:44 10° NNW 22:48:03 77° NE 22:48:11 76° ENE
ATLAS 5 CENTAUR R/B 3.3 22:43:25 10° NNW 22:48:49 38° NE 22:49:39 36° ENE
USA 267 3.4 22:46:33 10° NE 22:53:04 73° NW 22:59:35 10° WSW
Cosmos 1605 Rocket 4.0 22:59:49 70° ENE 22:59:49 70° ENE 23:05:41 10° NNE
Cosmos 2344 3.7 23:10:53 37° SW 23:14:18 77° NW 23:22:56 10° NE
SL-16 R/B 3.6 23:15:04 24° W 23:17:33 34° NW 23:22:42 10° N
Cosmos 1452 Rocket 4.4 23:18:15 45° NW 23:18:15 45° NW 23:23:03 10° N
USA 234 3.2 23:27:52 74° W 23:27:52 74° W 23:33:55 10° NW
Cosmos 1943 Rocket 2.8 23:27:56 10° NNW 23:32:07 51° N 23:32:07 51° N
Mayak 1.4 23:37:05 10° NNE 23:37:59 16° NNE 23:37:59 16° NNE
Cosmos 1603 4.4 23:45:00 50° NNW 23:45:00 50° NNW 23:49:32 10° NNE
Cosmos 1943 4.1 23:51:45 44° NNE 23:51:45 44° NNE 23:55:34 10° NNE
SeaSat 1 3.7 23:55:37 38° N 23:55:37 38° N 23:58:43 10° NNW
